{"data":{"norad_id":53828,"epoch":"2026-09-20T07:25:02.450496Z","epoch_age_seconds":100516,"freshness":"FRESH","line1":"1 53828U 22114L   26263.30905614  .00001023  00000+0  40242-4 0  9994","line2":"2 53828  53.1614 141.2740 0001155  95.5146 264.5989 15.35399072222338","mean_motion":15.35399072,"eccentricity":0.0001155,"inclination_deg":53.1614,"raan_deg":141.274,"arg_perigee_deg":95.5146,"mean_anomaly_deg":264.5989,"bstar":4.0242e-5,"rev_number":22233,"period_min":93.786692089391,"perigee_km":458.94562369871,"apogee_km":460.52517222264,"semimajor_km":6837.8723979607,"source":"CELESTRAK","updated_at":"2026-09-21T09:00:32.999333Z"}}